Simultaneous Nadir Overpasses (SNOs) Predictions

Prediction of SNOs between GOES-16 and TERRA Satellite Orbit:

Table of predicted SNOs for the next 14.0 days since TLE Epoch: 10/15/2022
Index Date Time (GOES-16) GOES-16 Lat,Lon TERRA Lat,Lon Distance(km) Time Diff (sec)
1 10/16/2022 15:01:25 -0.07, -75.21 -0.87, -71.55 415.98 80
2 10/17/2022 03:22:20 0.07, -75.19 -0.24, -76.63 164.49 80
3 10/19/2022 03:05:42 0.07, -75.20 0.48, -73.26 220.23 80
4 10/19/2022 15:26:30 -0.06, -75.22 0.58, -78.31 351.25 80
5 10/21/2022 15:15:11 -0.06, -75.24 -0.12, -74.93 34.51 80
6 10/23/2022 14:58:32 -0.06, -75.26 -0.83, -71.56 420.92 80
7 10/24/2022 03:22:09 0.06, -75.25 -0.25, -76.65 159.05 80
8 10/26/2022 03:05:30 0.06, -75.27 0.47, -73.27 227.80 80
9 10/26/2022 15:26:17 -0.06, -75.30 0.60, -78.32 343.08 80
10 10/28/2022 15:14:58 -0.05, -75.33 -0.15, -74.94 44.05 80
